Tracking 22779 objects as of 12-Apr-2021
HD Live streaming from Space Station
objects crossing your sky now

LEASAT 5

Track LEASAT 5 now!
LEASAT 5 is classified as:


NORAD ID: 20410
Int'l Code: 1990-002B
Perigee: 35,942.0 km
Apogee: 36,023.7 km
Inclination: 11.6 °
Period: 1,445.8 minutes
Semi major axis: 42353 km
RCS: 12.5892 m2 (large)
Launch date: January 9, 1990
Source: United States (US)
Launch site: AIR FORCE EASTERN TEST RANGE (AFETR)

Ultra High Frequency (UHF) satellite communications services to Australia; leased at end of use by U.S. Navy to Royal Australian Navy.
aabbcc
Your satellite tracking list
Your tracking list is empty




NASA's NSSDC Master Catalog

Two Line Element Set (TLE):
1 20410U 90002B   21101.60252378 -.00000298  00000-0  00000-0 0  9996
2 20410  11.6308   1.7812 0009638  30.6838 177.6471  0.99600975 99579
Source of the keplerian elements: AFSPC